Regional Weather Roundup
Issued by NWS

Current Version | Previous Version | Text Only | Print | Product List | Glossary Off
Versions: 1 2 3 4 5 6 7 8 9 10 11 12 13 14 15 16 17 18 19 20 21 22 23 24 25 26 27 28 29 30 31 32 33 34 35 36 37 38 39 40 41 42 43 44 45 46 47 48 49 50

000
ASUS44 KJAN 250220
RWRMS

MISSISSIPPI HOURLY WEATHER ROUNDUP
NATIONAL WEATHER SERVICE JACKSON MS
900 PM CDT SAT SEP 24 2016

NOTE: "FAIR: INDICATES FEW OR NO CLOUDS BELOW 12,000 FEET WITH NO
SIGNIFICANT WEATHER AND/OR OBSTRUCTIONS TO VISIBILITY.

MSZ001>002-007>008-010>013-018>021-025>028-034>036-250300-
NORTHWEST MISSISSIPPI

CITY           SKY/WX    TMP DP  RH WIND       PRES   REMARKS
BATESVILLE     FAIR      74  69  82 CALM      30.00R
CLARKSDALE     CLEAR     77  70  78 CALM      29.99R
CLEVELAND      FAIR      80  71  74 CALM      29.98R
GREENWOOD      PTCLDY    78  71  79 CALM      29.98R
GREENVILLE     MOCLDY    81  68  64 W3        29.98R
OXFORD         FAIR      75  64  69 CALM      30.02S
TUNICA         CLEAR     77  64  65 NW5       30.00R
WINONA         FAIR      74  69  82 CALM      29.99S
$$

MSZ003>006-009-014>017-022>024-029>033-037>039-250300-
NORTHEAST MISSISSIPPI

CITY           SKY/WX    TMP DP  RH WIND       PRES   REMARKS
COLUMBUS AFB   CLEAR     78  67  70 CALM      29.99R
CORINTH        FAIR      75  66  73 CALM      30.02R
GOLDN TRIANGLE CLEAR     79  61  53 CALM      29.99S
STARKVILLE     FAIR      75  68  78 CALM      30.01S
TUPELO         CLEAR     82  63  52 CALM      30.01R
$$

MSZ040-058-250300-
CENTRAL MISSISSIPPI

CITY           SKY/WX    TMP DP  RH WIND       PRES   REMARKS
JACKSON INTL   PTCLDY    78  69  73 CALM      30.00R
JACKSON HAWKNS CLEAR     79  69  71 CALM      30.00R
MADISON        FAIR      75  66  73 CALM      30.00R
MERIDIAN KEY   CLEAR     75  68  78 CALM      30.00R
MERIDIAN NAS   PTCLDY    80  66  62 CALM      30.00R
VICKSBURG VKS  CLEAR     77  73  88 CALM      29.98R
$$

MSZ059>079-250300-
SOUTH MISSISSIPPI

CITY           SKY/WX    TMP DP  RH WIND       PRES   REMARKS
BROOKHAVEN     FAIR     N/A N/A N/A CALM      30.03R
COLUMBIA       FAIR      75  73  94 CALM      30.04R
HATTIESBURG    CLEAR     82  71  69 SW5       30.01R
LAUREL         FAIR      82  70  66 CALM      30.00R
MCCOMB         CLEAR     79  73  82 CALM      30.01S
NATCHEZ        CLEAR     77  72  83 CALM      30.00R
PINE BELT      CLEAR     79  70  73 CALM      30.02R
$$

MSZ080>082-250300-
COASTAL MISSISSIPPI

CITY           SKY/WX    TMP DP  RH WIND       PRES   REMARKS
BAY ST LOUIS   CLEAR     75  72  88 CALM      30.00R
BILOXI         CLEAR     81  73  77 CALM      29.99R
PASCAGOULA     CLEAR     74  74 100 CALM      30.00R
GULFPORT       CLEAR     79  74  84 CALM      29.99R
$$

LAZ007>009-015>016-023>026-250300-
NORTHEAST LOUISIANA

CITY           SKY/WX    TMP DP  RH WIND       PRES   REMARKS
BASTROP        FAIR      73  72  98 CALM      30.00R
TALLULAH/VBURG CLEAR     74  70  87 CALM      29.99R
$$



USA.gov is the U.S. government's official web portal to all federal, state and local government web resources and services.